Volver al catálogo

FREGAT R/B

ActivoHEO
NORAD 42720·ROCKET BODY·🇷🇺 Russia

Lanzado May 25, 2017 desde Plesetsk Cosmodrome

Loading…

Próximos Pases (próximas 24 horas)

TLE

ActualizadoSource: Space-Track

Época: Sep 9, 2026, 03:07 UTC

1 42720U 17027B   26252.13038866  .00001431  00000-0  00000-0 0  9993
2 42720  62.4581 221.5263 7053848 268.0068  17.2010  2.01920662 68529

Sigue FREGAT R/B en tiempo real con AllMySat

Download on the App Store